Location: D�pe
(52.6057°N, 8.1808°E)
Time: 01:44:28
(UTC+00:00)

Cosmos 1943 Rocket - Pass Details

Date: 29 October 2020
Orbit: 813 x 842 km, 71.0° (Epoch: 23 November)

Event Time Altitude Azimuth Distance (km) Brightness Sun altitude
Rises 17:58:42 0° 287° (WNW) 3,351 6.8 -18.1°
Reaches altitude 10° 18:02:32 10° 313° (NW) 2,417 5.3 -18.7°
Maximum altitude 18:05:13 14° 343° (NNW) 2,174 4.6 -19.1°
Drops below altitude 10° 18:07:54 10° 12° (NNE) 2,416 4.5 -19.5°
Enters shadow 18:09:43 - 27° (NNE) 2,803 4.7 -19.8°
